Weather History for Vancouver, WA

Change the Weather History Date:

Saturday, November 2, 2013

  Actual Average Record
Temperature  
Mean Temperature 51 °F 49 °F  
Max Temperature 57 °F 57 °F 69 °F (1962)
Min Temperature 44 °F 42 °F 18 °F (1935)
Degree Days  
Heating Degree Days 14    
Month to date heating degree days 27  
Since 1 July heating degree days 521  
Cooling Degree Days 0    
Month to date cooling degree days 0  
Year to date cooling degree days 450  
Moisture  
Dew Point 46 °F    
Average Humidity 72    
Maximum Humidity 93    
Minimum Humidity 51    
Precipitation  
Precipitation 0.30 in 0.16 in 2.50 in (1984)
Month to date precipitation 0.61 0.32  
Year to date precipitation 22.80 26.78  
Snow  
Snow 0.00 in - - ()
Since 1 July snowfall 0.0  
Since 1 September snowfall 0.0  
Snow Depth 0.00 in    
Sea Level Pressure  
Sea Level Pressure 29.88 in    
Wind  
Wind Speed 9 mph (SSW)    
Max Wind Speed 23 mph    
Max Gust Speed 29 mph    
Visibility 8 miles    
Events Rain    
T = Trace of Precipitation, MM = Missing Value Source: NWS Daily Summary

Daily Weather History Graph

Daily Weather History Graph

Search for Another Location

Airport:

Trip Planner

Search our weather history database for the weather conditions in past years. The results will help you decide how hot, cold, wet, or windy it might be!

Date:

Astronomy

Nov. 02, 2013 Rise Set
Actual Time 7:52 AM PDT 5:55 PM PDT
Civil Twilight 7:21 AM PDT 6:26 PM PDT
Nautical Twilight 6:45 AM PDT 7:01 PM PDT
Astronomical Twilight 6:11 AM PDT 7:36 PM PDT
Moon 6:53 AM PDT (11/2) 5:31 PM PDT (11/2)
Length of Visible Light 11h 05m
Length of Day
10h 03m
Waning Crescent, 1% of the Moon is Illuminated
Nov 2
Waning Crescent
Nov 3
New
Nov 9
First Quarter
Nov 17
Full
Nov 25
Last Quarter

Hourly Weather History & Observations

Time (PDT) Temp. Windchill Dew Point Humidity Pressure Visibility Wind Dir Wind Speed Gust Speed Precip Events Conditions
12:21 AM 53.1 °F - 52.0 °F 96% 29.90 in 2.5 mi East 3.5 mph - 0.07 in Rain Rain
12:40 AM 53.1 °F - 52.0 °F 96% 29.88 in 3.0 mi ESE 6.9 mph - 0.12 in Rain Light Rain
12:53 AM 54.0 °F - 52.0 °F 93% 29.89 in 3.0 mi SE 5.8 mph - 0.14 in Rain Light Rain
1:02 AM 54.0 °F - 52.0 °F 93% 29.88 in 4.0 mi SE 6.9 mph - 0.01 in Rain Light Rain
1:53 AM 53.1 °F - 51.1 °F 93% 29.85 in 5.0 mi SSE 4.6 mph - 0.02 in Rain Light Rain
2:53 AM 53.1 °F - 51.1 °F 93% 29.83 in 5.0 mi South 3.5 mph - 0.03 in Rain Light Rain
3:35 AM 53.1 °F - 50.0 °F 89% 29.79 in 6.0 mi SSE 6.9 mph - 0.10 in Rain Light Rain
3:42 AM 53.1 °F - 50.0 °F 89% 29.78 in 7.0 mi SSE 10.4 mph 18.4 mph 0.10 in Rain Light Rain
3:49 AM 53.6 °F - 50.0 °F 88% 29.77 in 10.0 mi SE 8.1 mph 18.4 mph 0.10 in   Overcast
3:53 AM 53.1 °F - 50.0 °F 89% 29.76 in 10.0 mi SE 8.1 mph - 0.10 in   Overcast
4:09 AM 53.1 °F - 51.1 °F 93% 29.76 in 7.0 mi SE 6.9 mph - 0.01 in Rain Light Rain
4:53 AM 53.1 °F - 51.1 °F 93% 29.77 in 6.0 mi SSE 6.9 mph - 0.10 in Rain Light Rain
5:11 AM 53.1 °F - 50.0 °F 89% 29.75 in 10.0 mi SSE 9.2 mph - 0.02 in Rain Light Rain
5:32 AM 53.1 °F - 50.0 °F 89% 29.74 in 10.0 mi South 8.1 mph 16.1 mph 0.03 in Rain Light Rain
5:45 AM 54.0 °F - 50.0 °F 86% 29.74 in 10.0 mi South 8.1 mph - 0.03 in   Overcast
5:53 AM 54.0 °F - 50.0 °F 86% 29.73 in 10.0 mi Variable 6.9 mph 17.3 mph 0.03 in   Overcast
6:39 AM 54.0 °F - 48.9 °F 83% 29.73 in 10.0 mi South 12.7 mph 21.9 mph 0.00 in   Overcast
6:53 AM 54.0 °F - 48.9 °F 83% 29.74 in 10.0 mi Variable 6.9 mph 17.3 mph 0.00 in   Mostly Cloudy
7:53 AM 54.0 °F - 48.0 °F 80% 29.78 in 10.0 mi SSW 9.2 mph - N/A   Mostly Cloudy
8:53 AM 53.1 °F - 45.0 °F 74% 29.83 in 10.0 mi WSW 10.4 mph 17.3 mph N/A   Overcast
9:53 AM 52.0 °F - 45.0 °F 77% 29.88 in 10.0 mi WSW 9.2 mph - N/A   Overcast
10:53 AM 53.1 °F - 45.0 °F 74% 29.91 in 10.0 mi WSW 6.9 mph - 0.01 in   Partly Cloudy
11:53 AM 54.0 °F - 42.1 °F 64% 29.95 in 10.0 mi WSW 6.9 mph - N/A   Mostly Cloudy
12:53 PM 55.0 °F - 39.9 °F 57% 29.96 in 10.0 mi WSW 10.4 mph 19.6 mph N/A   Overcast
1:53 PM 55.9 °F - 37.0 °F 49% 29.96 in 10.0 mi West 16.1 mph - N/A   Scattered Clouds
2:53 PM 54.0 °F - 37.9 °F 55% 29.98 in 10.0 mi WNW 15.0 mph 21.9 mph 0.00 in   Overcast
3:53 PM 54.0 °F - 37.9 °F 55% 29.99 in 10.0 mi West 17.3 mph 23.0 mph N/A   Mostly Cloudy
4:53 PM 51.1 °F - 37.0 °F 59% 30.02 in 10.0 mi NW 12.7 mph 27.6 mph 0.00 in Rain Light Rain
5:53 PM 50.0 °F - 37.9 °F 63% 30.03 in 10.0 mi West 10.4 mph - 0.00 in   Mostly Cloudy
6:53 PM 48.9 °F - 37.9 °F 66% 30.03 in 10.0 mi West 4.6 mph - N/A   Scattered Clouds
7:53 PM 48.9 °F - 39.0 °F 69% 30.04 in 10.0 mi West 10.4 mph - 0.00 in Rain Light Rain
8:53 PM 48.9 °F - 37.9 °F 66% 30.04 in 10.0 mi West 11.5 mph 18.4 mph 0.00 in Rain Light Rain
9:53 PM 46.9 °F - 39.0 °F 74% 30.06 in 10.0 mi WSW 6.9 mph - 0.01 in   Mostly Cloudy
10:53 PM 46.0 °F 43.1 °F 37.0 °F 71% 30.06 in 10.0 mi West 5.8 mph - N/A   Mostly Cloudy
11:53 PM 44.1 °F 42.5 °F 39.0 °F 82% 30.05 in 10.0 mi SE 3.5 mph - 0.01 in   Mostly Cloudy